STARLINK-3786, 52263

Orbit data source: Space-Track

STARLINK-3786, 52263 is a payload satellite owned by SpaceX/Seattle (US) in LEO that was launched on Thu, 21 Apr 2022 UTC via an FALCON 9 launch vehicle from the Air Force Eastern Test Range (AFETR). Payload-class satellites include a variety of spacecraft equipped with specific instruments for various scientific and technological missions. These include communications satellites like Starlink; space stations such as the ISS; scientific satellites like the Hubble; Earth observation satellites from companies like Planet Labs, Umbra, and HawkEye 360; GPS; miniature CubeSats for education and research; and military/defense satellites.

Loading next visibility...
Identifier
52263, 2022-041C
Orbit
LEO
Country
Flag of USUS
Related business
Manufacturer
SpaceX/Seattle
Mission
Operational Commercial Communications
Bus & Motor
STARLINK, Unknown motor
Mass
297 kg wet, ~275 kg dry
Launch date (UTC)
2022-04-21 (4 years ago)
Launch vehicle
FALCON 9
Launch site
Air Force Eastern Test Range (AFETR)
Object type
Payload
Rocket body
Debris
Shape & HBR
Box + 1 Pan, 10.1 m
Radar Cross Section
11.087 m², Large (>1 m²)

Expand to show TLE details & history
Last TLE update: 1 day ago

TLE from 1 day ago
0 STARLINK-3786
1 52263U 22041C   26174.89843783 -.00000418  00000-0 -81582-5 0  9991
2 52263  53.1596 352.1950 0001099  86.7123 273.3994 15.08835468230392
Epoch: 2026-06-23T21:33Z
TLE epoch observation values (Epoch: 2026-06-23T21:33:45.028Z)
Latitude
-0.00003°
Longitude
116.69396°
Altitude
540.604 km
Speed
7.593 km/s
True Right ascension
23h 28m 46s
True Declination
0° 00' 00"
Sunlit
Object was in daylight at epoch
Visualization orbit readout
Latitude
Unknown
Longitude
Unknown
Altitude
Unknown
Speed
Unknown
Apparent Right ascension
Unknown
Apparent Declination
Unknown
Sunlit
N/A
Visualization observer readout
Local Sidereal Time
10:32:40
Azimuth
Unknown
Elevation
Unknown
Doppler factor
Unknown
Orbital elements
Apogee altitude
540.772 km
Perigee altitude
539.251 km
Semi-major axis
6,918.148 km
Eccentricity
0.00011
Inclination
53.1596°
RAAN
352.195°
Arg. of periapsis
86.7123°
True anomaly
273.38683°
Mean anomaly
273.3994°
Eccentric anomaly
273.39311°
Mean motion
3.77188 °/min
Orbital period
95.44 mins
BSTAR
-0.0000081582
Loading maneuver chart data...
Computing Atmospheric mass density...
Loading historical data...
Loading historical data...
Loading historical data...
Loading historical data...
Loading historical data...
Loading historical data...
Loading historical data...

Documentation

Showing up to 5 results
|